This is the latest recevied weather packets stored in our database for station/object KE5OYL. If no packets are shown the sender has not sent any weather packets the latest 10 day(s).
| Time | Temp. | Humidity | Pressure | Rain* | Wind** | Luminosity | Snow |
|---|---|---|---|---|---|---|---|
| 1788545180 | 35° C | 44% | 1014.7 hPa | 0 mm | - | 790 W/m² | - |
| 1788544875 | 35° C | 46% | 1014.7 hPa | 0 mm | - | 807 W/m² | - |
| 1788544574 | 34.44° C | 48% | 1014.9 hPa | 0 mm | - | 829 W/m² | - |
| 1788544272 | 34.44° C | 49% | 1014.8 hPa | 0 mm | - | 525 W/m² | - |
| 1788543967 | 33.33° C | 51% | 1015 hPa | 0 mm | - | 787 W/m² | - |
| 1788543664 | 33.89° C | 52% | 1015.1 hPa | 0 mm | - | 749 W/m² | - |
| 1788543364 | 34.44° C | 51% | 1015.2 hPa | 0 mm | - | 751 W/m² | - |
| 1788543059 | 33.89° C | 53% | 1015 hPa | 0 mm | - | 737 W/m² | - |
| 1788542755 | 33.89° C | 54% | 1015.4 hPa | 0 mm | - | 726 W/m² | - |
| 1788542454 | 33.33° C | 55% | 1015.3 hPa | 0 mm | - | 730 W/m² | - |
| 1788542149 | 32.22° C | 58% | 1015.3 hPa | 0 mm | - | 712 W/m² | - |
| 1788541845 | 32.78° C | 58% | 1015.4 hPa | 0 mm | - | 701 W/m² | - |
| 1788541540 | 32.22° C | 59% | 1015.6 hPa | 0 mm | - | 648 W/m² | - |
| 1788541237 | 33.33° C | 58% | 1015.6 hPa | 0 mm | - | 693 W/m² | - |
| 1788540935 | 32.22° C | 59% | 1015.5 hPa | 0 mm | - | 688 W/m² | - |
| 1788540635 | 32.22° C | 60% | 1015.6 hPa | 0 mm | - | 677 W/m² | - |
| 1788540330 | 31.67° C | 61% | 1015.7 hPa | 0 mm | - | 660 W/m² | - |
| 1788540026 | 32.22° C | 60% | 1015.8 hPa | 0 mm | - | 652 W/m² | - |
| 1788539725 | 32.22° C | 60% | 1015.9 hPa | 0 mm | - | 648 W/m² | - |
| 1788539420 | 31.67° C | 62% | 1015.6 hPa | 0 mm | - | 644 W/m² | - |
| 1788539115 | 31.11° C | 62% | 1015.6 hPa | 0 mm | - | 635 W/m² | - |
| 1788538811 | 31.11° C | 65% | 1015.6 hPa | 0 mm | - | 618 W/m² | - |
| 1788538505 | 31.11° C | 64% | 1015.8 hPa | 0 mm | - | 604 W/m² | - |
| 1788538201 | 31.11° C | 66% | 1015.4 hPa | 0 mm | - | 594 W/m² | - |
| 1788537895 | 31.11° C | 66% | 1015.7 hPa | 0 mm | - | 582 W/m² | - |
* Rain latest hour (hover to see other rain measurements)
** Current wind speed in m/s (hover to see current wind gust speed)